Time,TemperatureF,DewpointF,PressureIn,WindDirection,WindDirectionDegrees,WindSpeedMPH,WindSpeedGustMPH,Humidity,HourlyPrecipIn,Conditions,Clouds,dailyrainin,SoftwareType,DateUTC
2013-03-26 00:03:00,44.0,27.0,29.82,West,260,4.0,12.0,51,0.00,,,0.01,,2013-03-26 04:03:00,
2013-03-26 00:13:00,44.0,27.0,29.82,West,260,4.0,12.0,51,0.00,,,0.01,,2013-03-26 04:13:00,
2013-03-26 00:23:00,43.0,26.0,29.82,West,267,5.0,11.0,50,0.00,,,0.01,,2013-03-26 04:23:00,
2013-03-26 00:33:00,43.0,26.0,29.83,West,261,4.0,12.0,51,0.00,,,0.01,,2013-03-26 04:33:00,
2013-03-26 00:43:00,43.0,26.0,29.83,West,261,4.0,12.0,51,0.00,,,0.01,,2013-03-26 04:43:00,
2013-03-26 00:53:00,43.0,26.0,29.83,West,264,5.0,19.0,51,0.00,,,0.01,,2013-03-26 04:53:00,
2013-03-26 01:02:00,42.0,25.0,29.83,West,268,4.0,14.0,51,0.00,,,0.01,,2013-03-26 05:02:00,
2013-03-26 01:12:00,42.0,25.0,29.83,West,268,4.0,14.0,51,0.00,,,0.01,,2013-03-26 05:12:00,
2013-03-26 01:22:00,42.0,26.0,29.84,WNW,285,4.0,16.0,52,0.00,,,0.01,,2013-03-26 05:22:00,
2013-03-26 01:32:00,42.0,26.0,29.84,WNW,285,4.0,16.0,52,0.00,,,0.01,,2013-03-26 05:32:00,
2013-03-26 01:42:00,42.0,26.0,29.84,WNW,285,4.0,16.0,52,0.00,,,0.01,,2013-03-26 05:42:00,
2013-03-26 01:52:00,42.0,27.0,29.85,WSW,246,2.0,5.0,54,0.00,,,0.01,,2013-03-26 05:52:00,
2013-03-26 02:02:00,41.0,26.0,29.85,WNW,283,1.0,14.0,55,0.00,,,0.01,,2013-03-26 06:02:00,
2013-03-26 02:12:00,41.0,26.0,29.85,WNW,283,1.0,14.0,55,0.00,,,0.01,,2013-03-26 06:12:00,
2013-03-26 02:22:00,41.0,26.0,29.85,WNW,283,1.0,14.0,55,0.00,,,0.01,,2013-03-26 06:22:00,
2013-03-26 02:32:00,41.0,27.0,29.86,WSW,255,1.0,4.0,56,0.00,,,0.01,,2013-03-26 06:32:00,
2013-03-26 02:42:00,41.0,27.0,29.86,WSW,255,1.0,4.0,56,0.00,,,0.01,,2013-03-26 06:42:00,
2013-03-26 02:53:00,40.0,26.0,29.86,West,275,2.0,7.0,56,0.00,,,0.01,,2013-03-26 06:53:00,
2013-03-26 03:02:00,40.0,26.0,29.86,West,275,2.0,7.0,56,0.00,,,0.01,,2013-03-26 07:02:00,
2013-03-26 03:12:00,40.0,26.0,29.86,West,275,2.0,7.0,56,0.00,,,0.01,,2013-03-26 07:12:00,
2013-03-26 03:22:00,39.0,25.0,29.86,West,270,1.0,5.0,58,0.00,,,0.01,,2013-03-26 07:22:00,
2013-03-26 03:33:00,39.0,26.0,29.87,West,273,1.0,6.0,59,0.00,,,0.01,,2013-03-26 07:33:00,
2013-03-26 03:43:00,39.0,26.0,29.87,West,273,1.0,6.0,59,0.00,,,0.01,,2013-03-26 07:43:00,
2013-03-26 03:53:00,39.0,26.0,29.87,West,269,1.0,4.0,59,0.00,,,0.01,,2013-03-26 07:53:00,
2013-03-26 04:02:00,38.0,25.0,29.87,West,273,1.0,7.0,60,0.00,,,0.01,,2013-03-26 08:02:00,
2013-03-26 04:12:00,38.0,25.0,29.87,West,273,1.0,7.0,60,0.00,,,0.01,,2013-03-26 08:12:00,
2013-03-26 04:22:00,38.0,25.0,29.87,WNW,298,1.0,4.0,60,0.00,,,0.01,,2013-03-26 08:22:00,
2013-03-26 04:32:00,38.0,26.0,29.88,WNW,285,1.0,5.0,61,0.00,,,0.01,,2013-03-26 08:32:00,
2013-03-26 04:42:00,38.0,26.0,29.88,WNW,285,1.0,5.0,61,0.00,,,0.01,,2013-03-26 08:42:00,
2013-03-26 04:52:00,38.0,26.0,29.88,North,0,1.0,0.0,62,0.00,,,0.01,,2013-03-26 08:52:00,
2013-03-26 05:02:00,37.0,26.0,29.88,North,0,1.0,0.0,63,0.00,,,0.01,,2013-03-26 09:02:00,
2013-03-26 05:12:00,37.0,26.0,29.88,North,0,1.0,0.0,63,0.00,,,0.01,,2013-03-26 09:12:00,
2013-03-26 05:22:00,37.0,26.0,29.88,North,0,1.0,0.0,63,0.00,,,0.01,,2013-03-26 09:22:00,
2013-03-26 05:33:00,37.0,26.0,29.88,WNW,297,1.0,7.0,63,0.00,,,0.01,,2013-03-26 09:33:00,
2013-03-26 05:43:00,37.0,26.0,29.88,WNW,297,1.0,7.0,63,0.00,,,0.01,,2013-03-26 09:43:00,
2013-03-26 05:52:00,37.0,26.0,29.88,West,272,1.0,6.0,64,0.00,,,0.01,,2013-03-26 09:52:00,
2013-03-26 06:03:00,36.0,25.0,29.88,WSW,237,1.0,1.0,63,0.00,,,0.01,,2013-03-26 10:03:00,
2013-03-26 06:12:00,36.0,25.0,29.88,WSW,237,1.0,1.0,63,0.00,,,0.01,,2013-03-26 10:12:00,
2013-03-26 06:22:00,36.0,25.0,29.88,WNW,299,1.0,5.0,64,0.00,,,0.01,,2013-03-26 10:22:00,
2013-03-26 06:32:00,36.0,25.0,29.89,West,260,1.0,6.0,64,0.00,,,0.01,,2013-03-26 10:32:00,
2013-03-26 06:42:00,36.0,25.0,29.89,West,260,1.0,6.0,64,0.00,,,0.01,,2013-03-26 10:42:00,
2013-03-26 06:53:00,36.0,25.0,29.89,West,260,1.0,6.0,64,0.00,,,0.01,,2013-03-26 10:53:00,
2013-03-26 07:03:00,36.0,25.0,29.90,West,271,1.0,2.0,65,0.00,,,0.01,,2013-03-26 11:03:00,
2013-03-26 07:12:00,36.0,25.0,29.90,West,271,1.0,2.0,65,0.00,,,0.01,,2013-03-26 11:12:00,
2013-03-26 07:22:00,35.0,25.0,29.90,West,270,1.0,2.0,66,0.00,,,0.01,,2013-03-26 11:22:00,
2013-03-26 07:32:00,35.0,25.0,29.90,West,270,1.0,2.0,66,0.00,,,0.01,,2013-03-26 11:32:00,
2013-03-26 07:42:00,35.0,25.0,29.90,West,270,1.0,2.0,66,0.00,,,0.01,,2013-03-26 11:42:00,
2013-03-26 07:52:00,35.0,25.0,29.90,North,0,0.0,2.0,67,0.00,,,0.01,,2013-03-26 11:52:00,
2013-03-26 08:03:00,35.0,25.0,29.90,North,0,0.0,2.0,67,0.00,,,0.01,,2013-03-26 12:03:00,
2013-03-26 08:12:00,35.0,26.0,29.91,North,0,1.0,0.0,68,0.00,,,0.01,,2013-03-26 12:12:00,
2013-03-26 08:22:00,35.0,26.0,29.91,North,0,1.0,0.0,68,0.00,,,0.01,,2013-03-26 12:22:00,
2013-03-26 08:32:00,35.0,26.0,29.91,North,0,1.0,0.0,69,0.00,,,0.01,,2013-03-26 12:32:00,
2013-03-26 08:42:00,35.0,26.0,29.91,North,0,1.0,0.0,69,0.00,,,0.01,,2013-03-26 12:42:00,
2013-03-26 08:52:00,36.0,26.0,29.91,West,264,1.0,6.0,67,0.00,,,0.01,,2013-03-26 12:52:00,
2013-03-26 09:03:00,37.0,26.0,29.91,WNW,284,1.0,7.0,65,0.00,,,0.01,,2013-03-26 13:03:00,
2013-03-26 09:12:00,37.0,26.0,29.91,WNW,284,1.0,7.0,65,0.00,,,0.01,,2013-03-26 13:12:00,
2013-03-26 09:22:00,39.0,27.0,29.92,West,270,2.0,8.0,61,0.00,,,0.01,,2013-03-26 13:22:00,
2013-03-26 09:32:00,39.0,26.0,29.92,NNW,328,2.0,6.0,59,0.00,,,0.01,,2013-03-26 13:32:00,
2013-03-26 09:42:00,39.0,26.0,29.92,NNW,328,2.0,6.0,59,0.00,,,0.01,,2013-03-26 13:42:00,
2013-03-26 09:52:00,39.0,26.0,29.92,NNW,328,2.0,6.0,59,0.00,,,0.01,,2013-03-26 13:52:00,
2013-03-26 10:02:00,41.0,26.0,29.93,West,270,2.0,8.0,55,0.00,,,0.00,,2013-03-26 14:02:00,
2013-03-26 10:12:00,41.0,26.0,29.93,West,270,2.0,8.0,55,0.00,,,0.00,,2013-03-26 14:12:00,
2013-03-26 10:23:00,43.0,26.0,29.93,NNW,345,4.0,19.0,51,0.00,,,0.00,,2013-03-26 14:23:00,
2013-03-26 10:33:00,44.0,26.0,29.93,NNW,328,2.0,7.0,49,0.00,,,0.00,,2013-03-26 14:33:00,
2013-03-26 10:42:00,44.0,26.0,29.93,NNW,328,2.0,7.0,49,0.00,,,0.00,,2013-03-26 14:42:00,
2013-03-26 10:53:00,45.0,25.0,29.93,NW,312,4.0,8.0,46,0.00,,,0.00,,2013-03-26 14:53:00,
2013-03-26 11:02:00,46.0,26.0,29.92,WNW,296,2.0,5.0,45,0.00,,,0.00,,2013-03-26 15:02:00,
2013-03-26 11:12:00,46.0,26.0,29.92,WNW,296,2.0,5.0,45,0.00,,,0.00,,2013-03-26 15:12:00,
2013-03-26 11:22:00,47.0,26.0,29.92,North,11,4.0,12.0,44,0.00,,,0.00,,2013-03-26 15:22:00,
2013-03-26 11:33:00,48.0,25.0,29.92,North,1,2.0,17.0,41,0.00,,,0.00,,2013-03-26 15:33:00,
2013-03-26 11:43:00,48.0,25.0,29.92,North,1,2.0,17.0,41,0.00,,,0.00,,2013-03-26 15:43:00,
2013-03-26 11:52:00,50.0,26.0,29.92,NW,308,5.0,8.0,39,0.00,,,0.00,,2013-03-26 15:52:00,
2013-03-26 12:03:00,49.0,25.0,29.92,NNE,15,4.0,12.0,38,0.00,,,0.00,,2013-03-26 16:03:00,
2013-03-26 12:13:00,49.0,25.0,29.92,NNE,15,4.0,12.0,38,0.00,,,0.00,,2013-03-26 16:13:00,
2013-03-26 12:22:00,49.0,24.0,29.92,NW,314,4.0,12.0,37,0.00,,,0.00,,2013-03-26 16:22:00,
2013-03-26 12:32:00,50.0,27.0,29.92,NW,308,2.0,10.0,41,0.00,,,0.00,,2013-03-26 16:32:00,
2013-03-26 12:42:00,50.0,27.0,29.92,NW,308,2.0,10.0,41,0.00,,,0.00,,2013-03-26 16:42:00,
2013-03-26 12:53:00,51.0,25.0,29.92,West,276,2.0,14.0,36,0.00,,,0.00,,2013-03-26 16:53:00,
2013-03-26 13:03:00,51.0,25.0,29.91,NW,323,5.0,11.0,36,0.00,,,0.00,,2013-03-26 17:03:00,
2013-03-26 13:12:00,51.0,25.0,29.91,NW,323,5.0,11.0,36,0.00,,,0.00,,2013-03-26 17:12:00,
2013-03-26 13:23:00,52.0,26.0,29.91,WNW,286,4.0,12.0,36,0.00,,,0.00,,2013-03-26 17:23:00,
2013-03-26 13:33:00,53.0,25.0,29.91,NW,320,5.0,14.0,33,0.00,,,0.00,,2013-03-26 17:33:00,
2013-03-26 13:42:00,53.0,25.0,29.91,NW,320,5.0,14.0,33,0.00,,,0.00,,2013-03-26 17:42:00,
2013-03-26 13:53:00,52.0,24.0,29.92,NNW,330,5.0,12.0,33,0.00,,,0.00,,2013-03-26 17:53:00,
2013-03-26 14:02:00,52.0,25.0,29.91,West,270,5.0,12.0,34,0.00,,,0.00,,2013-03-26 18:02:00,
2013-03-26 14:12:00,52.0,25.0,29.91,West,270,5.0,12.0,34,0.00,,,0.00,,2013-03-26 18:12:00,
2013-03-26 14:23:00,52.0,25.0,29.91,West,270,5.0,12.0,34,0.00,,,0.00,,2013-03-26 18:23:00,
2013-03-26 14:34:00,50.0,24.0,29.91,NW,322,4.0,16.0,36,0.00,,,0.00,,2013-03-26 18:34:00,
2013-03-26 14:42:00,50.0,24.0,29.91,NW,322,4.0,16.0,36,0.00,,,0.00,,2013-03-26 18:42:00,
2013-03-26 14:53:00,50.0,24.0,29.91,NW,322,4.0,16.0,36,0.00,,,0.00,,2013-03-26 18:53:00,
2013-03-26 15:03:00,50.0,25.0,29.91,NNW,327,4.0,19.0,37,0.00,,,0.00,,2013-03-26 19:03:00,
2013-03-26 15:12:00,50.0,25.0,29.91,NNW,327,4.0,19.0,37,0.00,,,0.00,,2013-03-26 19:12:00,
2013-03-26 15:23:00,49.0,25.0,29.92,NNW,344,5.0,12.0,38,0.00,,,0.00,,2013-03-26 19:23:00,
2013-03-26 15:32:00,49.0,25.0,29.92,WNW,293,4.0,12.0,39,0.00,,,0.00,,2013-03-26 19:32:00,
2013-03-26 15:42:00,49.0,25.0,29.92,WNW,293,4.0,12.0,39,0.00,,,0.00,,2013-03-26 19:42:00,
2013-03-26 15:53:00,50.0,25.0,29.92,NNW,342,5.0,14.0,38,0.00,,,0.00,,2013-03-26 19:53:00,
2013-03-26 16:02:00,50.0,26.0,29.92,West,279,4.0,12.0,39,0.00,,,0.00,,2013-03-26 20:02:00,
2013-03-26 16:13:00,50.0,26.0,29.92,West,279,4.0,12.0,39,0.00,,,0.00,,2013-03-26 20:13:00,
2013-03-26 16:22:00,51.0,26.0,29.92,WNW,286,4.0,7.0,38,0.00,,,0.00,,2013-03-26 20:22:00,
2013-03-26 16:32:00,50.0,25.0,29.92,NW,316,4.0,7.0,38,0.00,,,0.00,,2013-03-26 20:32:00,
2013-03-26 16:42:00,50.0,25.0,29.92,NW,316,4.0,7.0,38,0.00,,,0.00,,2013-03-26 20:42:00,
2013-03-26 16:52:00,51.0,26.0,29.93,NNW,345,4.0,8.0,38,0.00,,,0.00,,2013-03-26 20:52:00,
2013-03-26 17:02:00,51.0,26.0,29.93,WNW,286,4.0,11.0,37,0.00,,,0.00,,2013-03-26 21:02:00,
2013-03-26 17:12:00,51.0,26.0,29.93,WNW,286,4.0,11.0,37,0.00,,,0.00,,2013-03-26 21:12:00,
2013-03-26 17:22:00,51.0,26.0,29.93,WNW,286,4.0,11.0,37,0.00,,,0.00,,2013-03-26 21:22:00,
2013-03-26 17:33:00,51.0,26.0,29.93,WNW,286,4.0,11.0,37,0.00,,,0.00,,2013-03-26 21:33:00,
2013-03-26 19:22:00,48.0,29.0,29.98,West,267,1.0,6.0,47,0.00,,,0.00,,2013-03-26 23:22:00,
2013-03-26 19:32:00,48.0,29.0,29.98,West,267,1.0,6.0,47,0.00,,,0.00,,2013-03-26 23:32:00,
2013-03-26 19:43:00,48.0,29.0,29.98,West,267,1.0,6.0,47,0.00,,,0.00,,2013-03-26 23:43:00,
2013-03-26 19:53:00,48.0,29.0,29.98,WNW,286,1.0,5.0,47,0.00,,,0.00,,2013-03-26 23:53:00,
2013-03-26 20:02:00,47.0,29.0,30.00,North,0,1.0,0.0,50,0.00,,,0.00,,2013-03-27 00:02:00,
2013-03-26 20:12:00,47.0,29.0,30.00,North,0,1.0,0.0,50,0.00,,,0.00,,2013-03-27 00:12:00,
2013-03-26 20:22:00,47.0,29.0,30.01,North,0,0.0,0.0,50,0.00,,,0.00,,2013-03-27 00:22:00,
2013-03-26 20:33:00,46.0,29.0,30.01,North,0,0.0,0.0,52,0.00,,,0.00,,2013-03-27 00:33:00,
2013-03-26 20:42:00,46.0,29.0,30.01,North,0,0.0,0.0,52,0.00,,,0.00,,2013-03-27 00:42:00,
2013-03-26 20:52:00,45.0,29.0,30.02,North,0,0.0,0.0,54,0.00,,,0.00,,2013-03-27 00:52:00,
2013-03-26 21:02:00,45.0,30.0,30.02,North,0,0.0,0.0,55,0.00,,,0.00,,2013-03-27 01:02:00,
2013-03-26 21:12:00,45.0,30.0,30.02,North,0,0.0,0.0,55,0.00,,,0.00,,2013-03-27 01:12:00,
2013-03-26 21:23:00,44.0,30.0,30.03,North,0,0.0,0.0,58,0.00,,,0.00,,2013-03-27 01:23:00,
2013-03-26 21:33:00,43.0,30.0,30.03,North,0,0.0,0.0,60,0.00,,,0.00,,2013-03-27 01:33:00,
2013-03-26 21:42:00,43.0,30.0,30.03,North,0,0.0,0.0,60,0.00,,,0.00,,2013-03-27 01:42:00,
2013-03-26 21:53:00,43.0,30.0,30.03,North,0,0.0,0.0,60,0.00,,,0.00,,2013-03-27 01:53:00,
2013-03-26 22:03:00,43.0,31.0,30.05,North,0,0.0,0.0,62,0.00,,,0.00,,2013-03-27 02:03:00,
2013-03-26 22:12:00,43.0,31.0,30.05,North,0,0.0,0.0,62,0.00,,,0.00,,2013-03-27 02:12:00,
2013-03-26 22:22:00,43.0,31.0,30.06,North,0,0.0,0.0,62,0.00,,,0.00,,2013-03-27 02:22:00,
2013-03-26 22:32:00,43.0,31.0,30.06,North,0,0.0,0.0,62,0.00,,,0.00,,2013-03-27 02:32:00,
2013-03-26 22:42:00,43.0,31.0,30.06,North,0,0.0,0.0,62,0.00,,,0.00,,2013-03-27 02:42:00,
2013-03-26 22:53:00,42.0,30.0,30.06,North,0,0.0,0.0,63,0.00,,,0.00,,2013-03-27 02:53:00,
2013-03-26 23:02:00,41.0,30.0,30.07,North,0,0.0,0.0,65,0.00,,,0.00,,2013-03-27 03:02:00,
2013-03-26 23:12:00,41.0,30.0,30.07,North,0,0.0,0.0,65,0.00,,,0.00,,2013-03-27 03:12:00,
2013-03-26 23:22:00,41.0,31.0,30.07,North,0,0.0,0.0,66,0.00,,,0.00,,2013-03-27 03:22:00,
2013-03-26 23:33:00,40.0,30.0,30.07,North,0,0.0,0.0,67,0.00,,,0.00,,2013-03-27 03:33:00,
2013-03-26 23:42:00,40.0,30.0,30.07,North,0,0.0,0.0,67,0.00,,,0.00,,2013-03-27 03:42:00,
2013-03-26 23:52:00,39.0,30.0,30.08,North,0,0.0,0.0,69,0.00,,,0.00,,2013-03-27 03:52:00,